Date,TemperatureHighF,TemperatureAvgF,TemperatureLowF,DewpointHighF,DewpointAvgF,DewpointLowF,HumidityHigh,HumidityAvg,HumidityLow,PressureMaxIn,PressureMinIn,WindSpeedMaxMPH,WindSpeedAvgMPH,GustSpeedMaxMPH,PrecipitationSumIn
2013-5-1,49.8,35.5,30.7,36.6,32.7,28.2,99,90,43,27.67,27.08,29,15,33,0.00
2013-5-2,57.4,41.4,31.1,31.4,26.2,2.3,99,59,11,27.76,27.52,24,7,24,0.00
2013-5-3,66.0,47.2,26.4,36.5,15.2,-8.0,91,43,5,27.55,27.20,20,5,20,0.00
2013-5-4,64.2,44.8,26.1,23.8,9.4,-9.4,71,34,6,27.34,27.23,26,9,26,0.00
2013-5-5,74.5,50.1,25.3,30.4,9.1,-12.1,79,32,3,27.40,27.23,18,4,18,0.00
2013-5-6,77.9,57.6,35.8,42.8,28.4,4.5,68,38,6,27.28,27.11,27,6,27,0.00
2013-5-7,74.1,59.2,50.7,53.3,47.6,34.4,98,67,44,27.17,27.02,25,9,25,0.00
2013-5-8,80.6,63.2,46.6,53.9,48.9,39.9,99,66,32,27.14,27.05,23,5,23,0.00
2013-5-9,68.5,56.6,45.7,52.5,46.3,43.0,93,70,45,27.26,27.11,22,7,22,0.00
2013-5-10,81.1,58.0,38.8,52.6,43.9,38.3,99,66,28,27.31,27.23,20,3,20,0.00
2013-5-11,75.0,59.5,46.4,47.0,21.2,-12.1,93,38,3,27.49,27.28,20,5,20,0.00
2013-5-12,89.1,64.6,38.7,50.4,37.9,19.9,76,41,13,27.34,27.17,15,3,15,0.00
2013-5-13,102.0,75.0,47.7,55.1,31.8,-8.4,80,35,3,27.20,27.05,14,1,15,0.00
2013-5-14,108.7,81.8,56.8,56.4,29.5,-4.7,53,24,3,27.08,27.08,20,3,20,0.00
2013-5-15,88.7,74.7,58.1,49.8,43.6,35.1,51,34,22,27.08,27.08,23,7,23,0.00
2013-5-16,90.3,66.3,55.9,56.7,50.5,41.7,91,60,29,27.08,27.08,34,4,34,0.00
2013-5-17,90.1,74.2,55.0,64.0,56.0,50.3,95,59,29,27.08,27.08,33,11,33,0.00
2013-5-18,87.8,72.2,60.1,65.9,60.8,47.0,93,70,43,27.08,27.08,26,10,26,0.00
2013-5-19,76.1,62.6,54.0,55.2,49.6,43.2,96,64,38,27.08,27.08,45,11,45,0.00
2013-5-20,68.9,59.4,53.4,53.1,46.1,39.9,93,64,39,27.08,27.08,37,14,37,0.00
2013-5-21,69.3,57.6,49.3,48.7,42.3,37.9,88,59,36,27.08,27.08,42,13,42,0.00
2013-5-22,78.6,60.2,43.2,48.7,44.5,41.5,96,61,33,27.08,27.08,57,7,57,0.00
2013-5-23,73.9,60.5,48.2,49.7,46.8,45.0,94,64,40,27.08,27.08,25,9,25,0.00
2013-5-24,86.5,67.5,55.8,66.8,55.5,48.6,95,69,35,27.08,27.08,51,20,51,0.00
2013-5-25,97.9,75.8,61.3,67.2,59.6,46.7,99,65,24,27.08,27.08,32,10,39,0.00
2013-5-26,98.1,80.2,63.9,63.8,57.0,49.8,94,51,22,0.00,40.00,15,3,16,0.00
2013-5-27,81.7,64.2,50.2,64.1,55.6,45.2,99,75,47,0.00,40.00,19,5,115,0.00
2013-5-28,87.3,73.5,57.9,67.1,58.4,51.0,99,64,30,0.00,40.00,25,10,25,0.00
2013-5-29,90.0,59.3,49.8,61.5,54.2,49.5,99,87,37,0.00,40.00,33,7,41,0.00
2013-5-30,80.2,63.3,46.0,51.5,44.8,37.5,99,55,26,0.00,40.00,28,6,31,0.00
2013-5-31,79.7,65.7,52.7,43.6,24.7,-10.9,71,35,3,0.00,40.00,35,16,35,0.00